Track STARLINK 1031 now! 10-day predictions STARLINK 1031 is classified as:
1 44736U 19074Z 21024.77450576 .00000776 00000-0 71004-4 0 9991 2 44736 53.0590 320.9648 0002327 67.5814 292.5422 15.06406907 66630